| time (UTC) | temp F | wind direction | speed knots | gust knots | rain 1hr in | rain 24hr in | rain mn in | humidity % | barometer mb |
| 20260504110434 | 56 | 205 | 7.0 | 10.4 | 0.00 | 0.00 | 0.00 | 64 | 1016.7 |
| 20260504100519 | 55 | 205 | 5.2 | 7.0 | 0.00 | 0.00 | 0.00 | 64 | 1016.6 |
| 20260504100418 | 55 | 206 | 4.3 | 5.2 | 0.00 | 0.00 | 0.00 | 63 | 1016.6 |
| 20260504081619 | 57 | 270 | 2.6 | 4.3 | 0.00 | 0.00 | 0.00 | 61 | 1016.9 |
| 20260504081517 | 57 | 215 | 3.5 | 4.3 | 0.00 | 0.00 | 0.00 | 61 | 1016.9 |
| 20260504080518 | 57 | 239 | 1.7 | 6.1 | 0.00 | 0.00 | 0.00 | 61 | 1017.0 |
| 20260504050718 | 56 | 204 | 2.6 | 4.3 | 0.00 | 0.00 | 0.00 | 57 | 1018.2 |
| 20260504045726 | 56 | 195 | 2.6 | 4.3 | 0.00 | 0.00 | 0.00 | 56 | 1018.3 |
| 20260504044725 | 56 | 196 | 3.5 | 6.1 | 0.00 | 0.00 | 0.00 | 57 | 1018.0 |
| 20260504043728 | 57 | 206 | 1.7 | 3.5 | 0.00 | 0.00 | 0.00 | 56 | 1018.2 |
| 20260504043626 | 57 | 206 | 2.6 | 4.3 | 0.00 | 0.00 | 0.00 | 56 | 1018.2 |
| 20260504040626 | 58 | 218 | 1.7 | 2.6 | 0.00 | 0.00 | 0.00 | 54 | 1018.4 |
| 20260504034625 | 58 | 195 | 3.5 | 7.0 | 0.00 | 0.00 | 0.00 | 53 | 1018.4 |
| 20260504033626 | 58 | 203 | 2.6 | 3.5 | 0.00 | 0.00 | 0.00 | 51 | 1018.6 |
| 20260504032725 | 58 | 231 | 1.7 | 4.3 | 0.00 | 0.00 | 0.00 | 51 | 1018.7 |
| 20260504031744 | 58 | 210 | 2.6 | 3.5 | 0.00 | 0.00 | 0.00 | 51 | 1018.6 |
| 20260504030725 | 58 | 215 | 2.6 | 3.5 | 0.00 | 0.00 | 0.00 | 49 | 1018.9 |
| 20260504025726 | 59 | 177 | 1.7 | 3.5 | 0.00 | 0.00 | 0.00 | 49 | 1018.8 |
| 20260504025642 | 59 | 216 | 2.6 | 5.2 | 0.00 | 0.00 | 0.00 | 50 | 1018.7 |
| 20260504024725 | 59 | 219 | 3.5 | 5.2 | 0.00 | 0.00 | 0.00 | 49 | 1018.8 |
| 20260504023725 | 59 | 238 | 1.7 | 3.5 | 0.00 | 0.00 | 0.00 | 48 | 1018.8 |
| 20260504022742 | 59 | 215 | 1.7 | 6.1 | 0.00 | 0.00 | 0.00 | 48 | 1018.7 |
| 20260504021724 | 59 | 237 | 0.9 | 3.5 | 0.00 | 0.00 | 0.00 | 49 | 1018.7 |
| 20260504015725 | 59 | 226 | 1.7 | 2.6 | 0.00 | 0.00 | 0.00 | 47 | 1018.4 |
| 20260504014727 | 60 | 202 | 0.0 | 0.9 | 0.00 | 0.00 | 0.00 | 44 | 1018.7 |
| 20260504013825 | 61 | 225 | 1.7 | 2.6 | 0.00 | 0.00 | 0.00 | 45 | 1018.2 |
| 20260504012825 | 61 | 205 | 1.7 | 2.6 | 0.00 | 0.00 | 0.00 | 43 | 1018.2 |
| 20260504011825 | 61 | 222 | 0.9 | 1.7 | 0.00 | 0.00 | 0.00 | 43 | 1018.2 |
| 20260504010824 | 60 | 214 | 1.7 | 2.6 | 0.00 | 0.00 | 0.00 | 45 | 1018.2 |
| 20260504003824 | 61 | 225 | 0.0 | 0.0 | 0.00 | 0.00 | 0.00 | 45 | 1018.2 |
| 20260504003726 | 62 | 225 | 0.0 | 0.0 | 0.00 | 0.00 | 0.00 | 45 | 1018.3 |
| 20260504002743 | 63 | 225 | 0.0 | 0.0 | 0.00 | 0.00 | 0.00 | 41 | 1018.3 |
| 20260504001827 | 64 | 225 | 0.0 | 1.7 | 0.00 | 0.00 | 0.00 | 40 | 1018.3 |
| 20260504000841 | 64 | 247 | 0.0 | 0.0 | 0.00 | 0.00 | 0.00 | 39 | 1018.4 |
| 20260503235926 | 65 | 222 | 0.9 | 1.7 | 0.00 | 0.00 | 0.00 | 38 | 1018.3 |
| 20260503233924 | 65 | 202 | 1.7 | 3.5 | 0.00 | 0.00 | 0.00 | 38 | 1018.2 |
| 20260503232926 | 66 | 217 | 0.9 | 2.6 | 0.00 | 0.00 | 0.00 | 36 | 1018.2 |
| 20260503231026 | 67 | 233 | 2.6 | 5.2 | 0.00 | 0.00 | 0.00 | 37 | 1018.4 |
| 20260503230125 | 67 | 195 | 2.6 | 4.3 | 0.00 | 0.00 | 0.00 | 36 | 1018.6 |
| 20260503225125 | 67 | 179 | 3.5 | 4.3 | 0.00 | 0.00 | 0.00 | 33 | 1018.6 |
| 20260503224127 | 68 | 203 | 4.3 | 6.1 | 0.00 | 0.00 | 0.00 | 34 | 1018.9 |
| 20260503222224 | 68 | 221 | 1.7 | 4.3 | 0.00 | 0.00 | 0.00 | 36 | 1019.1 |
| 20260503221224 | 68 | 210 | 3.5 | 6.1 | 0.00 | 0.00 | 0.00 | 36 | 1019.2 |
| 20260503215324 | 69 | 205 | 5.2 | 8.7 | 0.00 | 0.00 | 0.00 | 35 | 1019.2 |
| 20260503213325 | 68 | 221 | 2.6 | 4.3 | 0.00 | 0.00 | 0.00 | 36 | 1019.4 |
| 20260503212326 | 67 | 217 | 2.6 | 4.3 | 0.00 | 0.00 | 0.00 | 37 | 1019.5 |
| 20260503211423 | 68 | 198 | 4.3 | 8.7 | 0.00 | 0.00 | 0.00 | 36 | 1019.6 |
| 20260503210425 | 68 | 278 | 0.0 | 1.7 | 0.00 | 0.00 | 0.00 | 37 | 1019.9 |
| 20260503205425 | 69 | 204 | 1.7 | 3.5 | 0.00 | 0.00 | 0.00 | 36 | 1020.0 |
| 20260503204524 | 68 | 161 | 0.9 | 1.7 | 0.00 | 0.00 | 0.00 | 36 | 1020.1 |
| 20260503203525 | 68 | 246 | 1.7 | 6.1 | 0.00 | 0.00 | 0.00 | 37 | 1020.5 |
| 20260503201526 | 67 | 194 | 4.3 | 5.2 | 0.00 | 0.00 | 0.00 | 36 | 1020.7 |
| 20260503200525 | 66 | 3 | 0.9 | 1.7 | 0.00 | 0.00 | 0.00 | 38 | 1020.9 |
| 20260503192524 | 66 | 198 | 4.3 | 8.7 | 0.00 | 0.00 | 0.00 | 38 | 1021.6 |
| 20260503191526 | 67 | 187 | 5.2 | 8.7 | 0.00 | 0.00 | 0.00 | 37 | 1021.7 |
| 20260503190525 | 66 | 166 | 0.9 | 3.5 | 0.00 | 0.00 | 0.00 | 39 | 1022.0 |
| 20260503185525 | 66 | 220 | 1.7 | 6.1 | 0.00 | 0.00 | 0.00 | 38 | 1022.0 |
| 20260503184540 | 64 | 182 | 1.7 | 2.6 | 0.00 | 0.00 | 0.00 | 38 | 1022.1 |
| 20260503183626 | 65 | 202 | 2.6 | 4.3 | 0.00 | 0.00 | 0.00 | 39 | 1022.2 |
| 20260503182625 | 65 | 213 | 4.3 | 7.8 | 0.00 | 0.00 | 0.00 | 39 | 1022.3 |
| 20260503180724 | 65 | 359 | 0.9 | 1.7 | 0.00 | 0.00 | 0.00 | 38 | 1022.7 |
| 20260503175724 | 63 | 247 | 0.0 | 0.0 | 0.00 | 0.00 | 0.00 | 37 | 1022.6 |
| 20260503174725 | 63 | 304 | 1.7 | 4.3 | 0.00 | 0.00 | 0.00 | 38 | 1022.9 |
| 20260503173726 | 62 | 202 | 0.9 | 2.6 | 0.00 | 0.00 | 0.00 | 37 | 1023.1 |
| 20260503172824 | 62 | 212 | 0.9 | 3.5 | 0.00 | 0.00 | 0.00 | 39 | 1023.2 |
| 20260503150825 | 57 | 261 | 0.9 | 3.5 | 0.00 | 0.00 | 0.00 | 48 | 1024.2 |
| 20260503120124 | 40 | 180 | 0.0 | 0.0 | 0.00 | 0.00 | 0.00 | 96 | 1023.2 |